TimeCDT,TemperatureF,Dew PointF,Humidity,Sea Level PressureIn,VisibilityMPH,Wind Direction,Wind SpeedMPH,Gust SpeedMPH,PrecipitationIn,Events,Conditions,WindDirDegrees,DateUTC
12:56 AM,28.0,23.0,81,29.48,-9999.0,Variable,3.5,-,N/A,,Unknown,0,2013-03-19 05:56:00
1:56 AM,28.0,21.9,78,29.48,-9999.0,WSW,3.5,-,N/A,,Unknown,240,2013-03-19 06:56:00
2:56 AM,28.0,21.9,78,29.48,-9999.0,NW,6.9,18.4,N/A,,Unknown,320,2013-03-19 07:56:00
3:56 AM,27.0,19.9,75,29.47,-9999.0,NW,16.1,31.1,N/A,,Unknown,320,2013-03-19 08:56:00
4:56 AM,24.1,16.0,71,29.47,-9999.0,NNW,21.9,44.9,N/A,,Unknown,330,2013-03-19 09:56:00
5:56 AM,21.9,12.9,68,29.46,-9999.0,NNW,25.3,44.9,N/A,,Unknown,330,2013-03-19 10:56:00
6:56 AM,21.9,10.9,63,29.52,-9999.0,NNW,24.2,41.4,N/A,,Unknown,340,2013-03-19 11:56:00
7:56 AM,19.9,10.0,65,29.59,-9999.0,NW,16.1,34.5,N/A,,Unknown,320,2013-03-19 12:56:00
8:56 AM,19.0,8.1,62,29.63,-9999.0,NW,13.8,35.7,N/A,,Unknown,320,2013-03-19 13:56:00
9:56 AM,19.0,8.1,62,29.63,-9999.0,NW,17.3,36.8,N/A,,Unknown,320,2013-03-19 14:56:00
10:56 AM,19.0,7.0,59,29.68,-9999.0,NW,20.7,41.4,N/A,,Unknown,320,2013-03-19 15:56:00
11:56 AM,21.0,9.0,60,29.69,-9999.0,NW,16.1,32.2,N/A,,Unknown,320,2013-03-19 16:56:00
12:56 PM,25.0,10.9,55,29.71,-9999.0,WNW,13.8,29.9,N/A,,Unknown,300,2013-03-19 17:56:00
1:56 PM,26.1,12.0,55,29.74,-9999.0,NW,12.7,23.0,N/A,,Unknown,310,2013-03-19 18:56:00
2:56 PM,25.0,10.0,53,29.77,-9999.0,NW,13.8,32.2,N/A,,Unknown,310,2013-03-19 19:56:00
3:56 PM,25.0,10.0,53,29.80,-9999.0,WNW,12.7,29.9,N/A,,Unknown,300,2013-03-19 20:56:00
4:56 PM,24.1,10.0,55,29.82,-9999.0,NW,13.8,35.7,N/A,,Unknown,310,2013-03-19 21:56:00
5:56 PM,23.0,12.0,63,29.85,-9999.0,WNW,8.1,20.7,N/A,,Unknown,300,2013-03-19 22:56:00
6:56 PM,21.9,10.0,60,29.88,-9999.0,WNW,8.1,18.4,N/A,,Unknown,300,2013-03-19 23:56:00
7:56 PM,21.9,12.9,68,29.91,-9999.0,West,5.8,-,N/A,,Unknown,260,2013-03-20 00:56:00
8:56 PM,21.0,9.0,60,29.91,-9999.0,Variable,6.9,19.6,N/A,,Unknown,0,2013-03-20 01:56:00
9:56 PM,19.9,9.0,62,29.93,-9999.0,West,13.8,19.6,N/A,,Unknown,260,2013-03-20 02:56:00
10:56 PM,19.9,8.1,60,29.94,-9999.0,Variable,4.6,-,N/A,,Unknown,0,2013-03-20 03:56:00
11:56 PM,19.0,7.0,59,29.94,-9999.0,Variable,4.6,-,N/A,,Unknown,0,2013-03-20 04:56:00